Regional Weather Roundup
Issued by NWS

Home | Current Version | Previous Version | Graphics & Text | Print | Product List | Glossary On
Versions: 1 2 3 4 5 6 7 8 9 10 11 12 13 14 15 16 17 18 19 20 21 22 23 24 25 26 27 28 29 30 31 32 33 34 35 36 37 38 39 40 41 42 43 44 45 46 47 48 49 50
000
ASUS45 KBOU 242107
RWRCO

WEATHER ROUNDUP FOR COLORADO
NATIONAL WEATHER SERVICE DENVER/BOULDER CO
300 PM MDT FRI APR 24 2015

NOTE: "FAIR" INDICATES FEW OR NO CLOUDS BELOW 12000 FEET WITH NO
SIGNIFICANT WEATHER AND/OR OBSTRUCTIONS TO VISIBILITY.

COZ001>005-013-030-031-242200-
...NORTHWEST COLORADO...

CITY           SKY/WX    TMP DP  RH WIND       PRES   REMARKS
CRAIG          PTSUNNY   55  30  38 SW23G29   29.74R
HAYDEN         PTSUNNY   54  27  35 SW22G32   29.73R
MEEKER         PTSUNNY   53  34  48 S10G23    29.77S
MOUNT WERNER   NOT AVBL
STEAMBOAT SPGS PTSUNNY   54  24  31 NW6       29.73F
WALDEN         PTSUNNY   50  21  32 SW10      29.77S
$$

COZ006>008-011-242200-
...WEST CENTRAL VALLEYS...

CITY           SKY/WX    TMP DP  RH WIND       PRES   REMARKS
GRAND JUNCTION CLOUDY    62  29  28 S13       29.71F
MONTROSE       PTSUNNY   53  30  41 SW23G35   29.80S
EAGLE          PTSUNNY   52  32  46 NW21G28   29.80S
RIFLE          CLOUDY    51  32  48 N13G24    29.81R
DELTA          PTSUNNY   67  29  23 S28G33    29.75S
NUCLA          PTSUNNY   61  23  23 S12G20    29.84S
$$

COZ017>023-064>068-242200-
...SOUTHWEST COLORADO...

CITY           SKY/WX    TMP DP  RH WIND       PRES   REMARKS
DURANGO        CLOUDY    49  31  49 E9        29.87F
CORTEZ         CLOUDY    60  23  24 W15G24    29.82F
PAGOSA SPRINGS LGT SNOW  38  31  75 W12       29.94R
TELLURIDE      CLOUDY    38  31  76 E7        29.95S
WOLF CREEK PAS NOT AVBL
$$

COZ009-010-012-014-032>034-037-058>063-242200-
...CENTRAL COLORADO...

CITY           SKY/WX    TMP DP  RH WIND       PRES   REMARKS
ASPEN          CLOUDY    42  29  59 S12       29.84F
BUENA VISTA    CLOUDY    51  19  28 W18G26    29.76F
COPPER MTN     CLOUDY    30  23  74 W28G41    29.91S WCI  16
BERTHOUD PASS  LGT SNOW  21  14  73 N8G18     29.93R WCI  12
COTTONWOOD PAS CLOUDY    45  12  26 W8G18     29.84S
GUNNISON       CLOUDY    46  25  42 W22G31    29.87R
KREMMLING      CLOUDY    55  19  24 W10       29.77F
LEADVILLE      FLURRIES  32  25  75 W16       29.87R WCI  21
SALIDA         CLOUDY    55  22  27 W18G26    29.84S
SUNLIGHT       CLOUDY    34  30  86 SW6       29.95R WCI  29
WILKERSON PASS LGT SNOW  32  21  64 MISG      29.91R
$$

COZ069>075-242200-
...SAN LUIS VALLEY/SANGRE DE CRISTO MOUNTAINS...

CITY           SKY/WX    TMP DP  RH WIND       PRES   REMARKS
ALAMOSA        CLOUDY    55  17  22 SW16G23   29.79S
LA VETA PASS   LGT SNOW  32  27  80 W7        29.86R WCI  26
SAGUACHE       CLOUDY    46  25  42 W16G22    29.81F
$$

COZ035-036-038>040-242200-
...NORTHERN COLORADO FRONT RANGE...

CITY           SKY/WX    TMP DP  RH WIND       PRES   REMARKS
DENVER INTL AP CLOUDY    62  26  25 SW3       29.64S
DMNS CITY PARK   N/A     62  25  24 E8G16     29.64S
AURORA         PTSUNNY   62  24  23 NW12G22   29.65F
FRONT RANGE AP PTSUNNY   64  28  25 CALM      29.65F
ERIE MUNI ARPT CLOUDY    59  26  28 NW15G22   29.65R
BOULDER MUN AP CLOUDY    59  28  31 E8        29.65F
CENTENNIAL     CLOUDY    61  24  24 VRB3      29.65F
BROOMFIELD     PTSUNNY   59  28  31 N12G17    29.67R
FORT COLLINS   CLOUDY    63  30  29 CALM      29.65F
LONGMONT       CLOUDY    63  29  27 S5        29.66F
$$

COZ041-046-047-076>085-087-088-242200-
...PIKES PEAK/PALMER DIVIDE AND SOUTHERN FOOTHILLS...

CITY           SKY/WX    TMP DP  RH WIND       PRES   REMARKS
COLO. SPRINGS  CLOUDY    58  28  32 N29G37    29.69R
A. F. ACADEMY  LGT RAIN  50  34  54 NW18G24   29.72S
ELLICOTT       CLOUDY   N/A N/A N/A N17       29.69R THUNDER
FALCON         CLOUDY    51  30  43 W26G36    29.74R
FORT CARSON    NOT AVBL
LIMON          CLOUDY    63  28  26 NE6G18    29.62F
MONUMENT HILL  CLOUDY    54  27  35 W7        29.71S
TRINIDAD       CLOUDY    65  23  20 NW14G23   29.64S
$$

COZ042>045-048>051-090-091-242200-
...NORTHEAST COLORADO...

CITY           SKY/WX    TMP DP  RH WIND       PRES   REMARKS
GREELEY ARPT   CLOUDY    66  25  20 W20G26    29.62F
AKRON          PTSUNNY   63  35  35 E10       29.60F THUNDER
BURLINGTON     CLOUDY    63  46  54 NE16      29.58S
WRAY           PTSUNNY   69  46  43 NE16      29.56F
STERLING       PTSUNNY   68  34  28 N25G36    29.57S
HOLYOKE        MOSUNNY   73  41  31 E7        29.56F
FORT MORGAN    PTSUNNY   65  29  25 N25       29.62R
$$

COZ086-089-092>099-242200-
...SOUTHEAST COLORADO...

CITY           SKY/WX    TMP DP  RH WIND       PRES   REMARKS
PUEBLO         LGT RAIN  64  27  24 VRB3G24   29.60R
LA JUNTA       PTSUNNY   73  24  16 W9        29.54F
LAMAR          PTSUNNY   71  32  23 SW8       29.51F
SPRINGFIELD      N/A     63  33  32 SW13G18   29.59S
$$



USA.gov is the U.S. government's official web portal to all federal, state and local government web resources and services.